Volver al catálogo

ONEWEB-0421

ActivoComunicacionesPO
NORAD 50496·PAYLOAD·🇬🇧 United Kingdom

Lanzado Dec 27, 2021 desde Baikonur Cosmodrome

Loading…

Próximos Pases (próximas 24 horas)

TLE

ActualizadoSource: CelesTrak SupGP

Época: Sep 14, 2026, 21:00 UTC

1 50496C 21132AD  26257.87515463 -.00000252  00000+0 -63924-3 0  2578
2 50496  87.9171 317.6365 0002345  99.6126  12.2687 13.18687662    12

Sigue ONEWEB-0421 en tiempo real con AllMySat

Download on the App Store